Location: Fort Worth, Tx
(32.7431°N, 97.3695°W)
Time: 04:59:53
(UTC-05:00)

Altair - Pass Details

Date: 06 October 2023
Orbit: 1501 x 1682 km, 47.2° (Epoch: 06 December)

Event Time Altitude Azimuth Distance (km) Brightness Sun altitude
Rises 04:14:56 0° 264° (W) 4,732 - -51.1°
Reaches altitude 10° 04:18:13 10° 272° (W) 3,774 - -50.6°
Maximum altitude 04:27:15 43° 341° (NNW) 2,154 - -49.1°
Exits shadow 04:30:05 36° 17° (NNE) 2,382 8.6 -48.6°
Drops below altitude 10° 04:36:38 10° 51° (NE) 3,909 10.1 -47.4°
Sets 04:40:07 0° 58° (ENE) 4,914 10.9 -46.8°
